[[{"header":{"parameterUnit":"m.s-1","parameterCategory":2,"la1":30.2991,"la2":30.254,"lo1":-89.0895,"lo2":-89.0444,"dy":0.0017,"dx":0.0017,"nx":28,"ny":28,"refTime":"2025-11-05T09:00:00:Z","depth":"0","parameterNumber":2,"parameterNumberName":"U-component_of_CURRENTS"},"data":[0,0,0,0,0,0,0,0,0,0,0,0,0,0,0,0,0,0,0,0,0,0,0,0,0,0,0,0,0,0,0,0,0,0,0,0,0,0,0,0,0,0,0,0,0,0,0,0,0,0,0,0,0,0,0,0,0,0,0.2352,0.2353,0,0.2423,0.2424,0.2425,0.2441,0.2441,0.244,0.244,0.2462,0.2462,0.2463,0,0,0,0,0,0,0,0,0,0,0,0,0,0.2233,0.2235,0.2352,0.2353,0.2354,0.2423,0.2424,0.2425,0.2441,0.2441,0.244,0.244,0.2461,0.2462,0.2463,0,0,0,0,0,0,0,0,0,0,0,0,0,0.2291,0.2236,0.2352,0.2371,0.2374,0.2423,0.2424,0.2425,0.2441,0.2441,0.244,0.2439,0.2461,0.2462,0.2464,0.2483,0,0,0.2468,0.2468,0,0,0,0,0,0,0,0,0.2288,0.2296,0.2368,0.237,0.2373,0.2424,0.239,0.2443,0.2441,0.2414,0.244,0.2439,0.2446,0.2448,0.2462,0.2484,0.2485,0.2468,0.2469,0.2469,0.247,0,0,0,0,0,0,0,0.2284,0.2293,0.2379,0.2369,0.2372,0.2378,0.2385,0.24,0.243,0.2416,0.2418,0.2429,0.2447,0.246,0.2462,0.2486,0.2468,0.2469,0.247,0.2471,0.2546,0.2547,0,0,0,0,0,0,0.2279,0.2289,0.2377,0.2381,0.233,0.2381,0.2389,0.2407,0.2431,0.2435,0.2429,0.2429,0.2458,0.2461,0.2463,0.2499,0.2469,0.2471,0.2471,0.2545,0.2546,0.2547,0,0,0,0,0,0,0.2276,0.2286,0.2374,0.2337,0.2349,0.2383,0.2404,0.2409,0.2426,0.2441,0.2444,0.2441,0.2458,0.2461,0.2486,0.2499,0.2471,0.2473,0.2543,0.2545,0.2547,0.2563,0,0,0,0,0,0,0.2273,0.2285,0.2296,0.2337,0.2351,0.2407,0.2404,0.2411,0.2434,0.2434,0.2453,0.2454,0.2458,0.2484,0.2488,0.2501,0.2474,0.2542,0.2544,0.2546,0.2561,0.2566,0.2569,0,0,0,0,0,0.2268,0.2282,0.2296,0.2306,0.2365,0.2408,0.2416,0.2437,0.2435,0.2448,0.2462,0.2453,0.25,0.2487,0.249,0.2504,0.2541,0.2543,0.2546,0.256,0.2565,0.2569,0,0,0,0,0,0,0.2231,0.2287,0.2302,0.2331,0.237,0.2411,0.2425,0.244,0.2464,0.2462,0.247,0.2473,0.2502,0.2504,0.2488,0.2534,0.2519,0.2522,0.2528,0.2533,0.2537,0.2532,0.2475,0,0,0,0,0,0.223,0.2257,0.231,0.2332,0.2352,0.239,0.2409,0.2428,0.2455,0.2465,0.2478,0.2494,0.2517,0.2524,0.2545,0.2567,0.2606,0.2579,0.2583,0.2586,0.2587,0.2655,0.2665,0.2556,0.2556,0.2556,0,0,0.2219,0.2254,0.2268,0.2326,0.2355,0.239,0.24,0.2434,0.2459,0.2463,0.2493,0.2511,0.2529,0.2558,0.257,0.2558,0.2647,0.2589,0.2592,0.2591,0.2659,0.2669,0.2679,0.2558,0.2558,0.2557,0,0,0.2213,0.2246,0.227,0.2306,0.2359,0.2388,0.2399,0.2448,0.2465,0.2502,0.2513,0.2539,0.2568,0.2587,0.2598,0.2636,0.2669,0.2642,0.2652,0.2719,0.2728,0.2737,0.2838,0.2855,0.2638,0.2639,0.2639,0,0.2196,0.2241,0.2281,0.2315,0.2344,0.2387,0.2418,0.2448,0.2496,0.2516,0.2511,0.2576,0.2583,0.2627,0.2636,0.2643,0.2701,0.263,0.2724,0.2733,0.2741,0.2842,0.2861,0.264,0.264,0.2639,0.2639,0,0.2215,0.2251,0.2268,0.2329,0.2362,0.2398,0.2448,0.248,0.2504,0.2534,0.2585,0.2607,0.2647,0.2651,0.2651,0.2714,0.2746,0.2725,0.271,0.2753,0.2858,0.2877,0.2641,0.2641,0.2641,0.264,0,0,0.2179,0.2266,0.2272,0.2305,0.2375,0.2406,0.245,0.251,0.255,0.2583,0.264,0.2662,0.2682,0.2697,0.271,0.275,0.2864,0.276,0.2763,0.2858,0.3052,0.3079,0.3103,0.2863,0.2866,0.2868,0.3114,0,0.2186,0.2246,0.229,0.2344,0.2381,0.2435,0.2478,0.2531,0.258,0.2646,0.2674,0.2734,0.27,0.2735,0.2768,0.2848,0.291,0.2801,0.2997,0.3004,0.3019,0.3124,0.3057,0.3269,0.3133,0.3136,0.3139,0,0.2193,0.2237,0.2288,0.2369,0.239,0.2425,0.2511,0.2559,0.265,0.2691,0.2746,0.279,0.2867,0.2829,0.298,0.2918,0.2986,0.3035,0.3045,0.3072,0.3066,0.3197,0.331,0.3252,0.3169,0.3166,0.3164,0,0.2155,0.2236,0.2277,0.2304,0.2397,0.2428,0.248,0.2566,0.2624,0.2735,0.2804,0.2883,0.2963,0.3037,0.3138,0.3077,0.332,0.3253,0.3347,0.3352,0.3333,0.333,0.3403,0.3365,0.3364,0.3364,0.3363,0,0.2151,0.2183,0.2263,0.2289,0.2337,0.2411,0.2477,0.2543,0.266,0.2743,0.2828,0.2925,0.3017,0.3159,0.3211,0.3372,0.3393,0.3387,0.3422,0.3341,0.3336,0.3312,0.326,0.3373,0.3371,0.3369,0.3367,0,0.2103,0.216,0.2205,0.2294,0.232,0.2352,0.2464,0.2525,0.2648,0.2771,0.282,0.3002,0.3193,0.3311,0.3481,0.3495,0.3552,0.3669,0.3589,0.3608,0.3585,0.3536,0.3507,0.3393,0.3809,0.3811,0.3813,0,0.2085,0.2105,0.2182,0.2207,0.2245,0.2308,0.2358,0.2487,0.2563,0.2812,0.2876,0.312,0.3268,0.3567,0.3665,0.3829,0.3671,0.3837,0.3677,0.3613,0.3585,0.3387,0.3275,0.3687,0.3687,0.3688,0.3688,0,0.2042,0.2067,0.2108,0.2154,0.2201,0.2253,0.2343,0.2405,0.2582,0.2715,0.2922,0.3078,0.3399,0.3558,0.3797,0.386,0.3667,0.3852,0.3799,0.3519,0.3294,0.3192,0.352,0.3693,0.3693,0.3692,0.3692,0.3692,0.1999,0.2009,0.2063,0.2103,0.2149,0.2201,0.2221,0.2343,0.2469,0.2665,0.2871,0.3084,0.3411,0.3739,0.3778,0.3845,0.3726,0.3769,0.3735,0.3554,0.3364,0.3723,0.3908,0.3909,0.3909,0.391,0.391,0,0.1944,0.1974,0.2013,0.2053,0.2069,0.2122,0.2209,0.223,0.2334,0.2573,0.2749,0.3127,0.3377,0.3595,0.382,0.3752,0.3519,0.3677,0.3373,0.3278,0.3652,0.3565,0.3665,0.3665,0.3665,0.3665,0.3665,0.3665,0.192,0.1937,0.1965,0.1969,0.1991,0.1985,0.2013,0.2067,0.2202,0.2426,0.2635,0.2866,0.3329,0.3728,0.3779,0.3684,0.3365,0.328,0.3195,0.348,0.3483,0.3486,0.3392,0.3454,0.3454,0.2683,0.2678,0.2674]},{"header":{"parameterUnit":"m.s-1","parameterCategory":2,"la1":30.2991,"la2":30.254,"lo1":-89.0895,"lo2":-89.0444,"dy":0.0017,"dx":0.0017,"nx":28,"ny":28,"refTime":"2025-11-05T09:00:00:Z","depth":"0","parameterNumber":3,"parameterNumberName":"V-component_of_CURRENTS"},"data":[0,0,0,0,0,0,0,0,0,0,0,0,0,0,0,0,0,0,0,0,0,0,0,0,0,0,0,0,0,0,0,0,0,0,0,0,0,0,0,0,0,0,0,0,0,0,0,0,0,0,0,0,0,0,0,0,0,0,0.0038,0.0037,0,-0.0037,-0.0038,-0.0039,-0.0099,-0.0099,-0.01,-0.01,-0.0227,-0.023,-0.0233,0,0,0,0,0,0,0,0,0,0,0,0,0,0.0093,0.0092,0.0038,0.0037,0.0036,-0.0037,-0.0038,-0.0039,-0.0099,-0.0099,-0.01,-0.0101,-0.0226,-0.023,-0.0233,0,0,0,0,0,0,0,0,0,0,0,0,0,0.0047,0.0092,0.0038,-0.0001,-0.0006,-0.0037,-0.0038,-0.004,-0.0099,-0.0099,-0.01,-0.0101,-0.0225,-0.0229,-0.0234,-0.0245,0,0,-0.0247,-0.0249,0,0,0,0,0,0,0,0,0.005,0.0045,0.0005,0.0001,-0.0003,-0.0058,-0.0065,-0.0111,-0.0098,-0.0064,-0.01,-0.0101,-0.0174,-0.0183,-0.0196,-0.0251,-0.0257,-0.0247,-0.025,-0.0252,-0.0253,0,0,0,0,0,0,0,0.0053,0.0048,0.0007,0.0004,-0.0001,-0.0028,-0.0035,-0.0074,-0.0116,-0.0067,-0.0072,-0.0078,-0.0177,-0.0192,-0.02,-0.0259,-0.0247,-0.0251,-0.0254,-0.0255,-0.0325,-0.0324,0,0,0,0,0,0,0.0068,0.0051,0.001,0.0005,0.0023,-0.0028,-0.0036,-0.0041,-0.0115,-0.0126,-0.0077,-0.0081,-0.0184,-0.0194,-0.0204,-0.0221,-0.0252,-0.0256,-0.0258,-0.0325,-0.0324,-0.0324,0,0,0,0,0,0,0.0069,0.0065,0.0013,0.0027,0.0019,-0.0028,-0.0033,-0.0042,-0.0057,-0.0121,-0.0134,-0.0083,-0.0185,-0.0198,-0.023,-0.0227,-0.0258,-0.0262,-0.0326,-0.0325,-0.0324,-0.0256,0,0,0,0,0,0,0.0071,0.0066,0.0068,0.0028,0.0018,0.0001,-0.0033,-0.0043,-0.0059,-0.0064,-0.013,-0.0143,-0.0186,-0.0223,-0.0235,-0.0233,-0.0265,-0.0327,-0.0326,-0.0324,-0.026,-0.0253,-0.0247,0,0,0,0,0,0.0073,0.0081,0.0069,0.0064,0.0023,0.0002,-0.0006,-0.0043,-0.0058,-0.0059,-0.01,-0.0141,-0.0222,-0.0226,-0.024,-0.024,-0.0328,-0.0326,-0.0325,-0.0262,-0.0254,-0.0248,0,0,0,0,0,0,0.0107,0.0075,0.006,0.0058,0.0035,-0.0008,-0.0012,-0.0035,-0.0068,-0.0073,-0.0133,-0.0148,-0.0175,-0.0211,-0.0214,-0.0253,-0.0281,-0.0282,-0.0229,-0.0222,-0.0216,-0.0222,-0.0269,0,0,0,0,0,0.0117,0.0113,0.008,0.0079,0.0071,0.0032,0.0019,-0.0004,-0.0038,-0.0053,-0.0097,-0.0141,-0.0177,-0.0202,-0.0238,-0.0261,-0.0288,-0.0268,-0.0262,-0.0257,-0.0269,-0.0305,-0.0303,-0.0318,-0.0318,-0.0318,0,0,0.0129,0.0112,0.0109,0.0086,0.0065,0.0056,0.0022,0.001,-0.0001,-0.0062,-0.0085,-0.0121,-0.0177,-0.0202,-0.0217,-0.0233,-0.0257,-0.0254,-0.025,-0.0266,-0.0303,-0.0302,-0.0301,-0.0317,-0.0317,-0.0317,0,0,0.0153,0.0139,0.0143,0.0128,0.0104,0.008,0.0081,0.0044,0.0025,0.0003,-0.0041,-0.0074,-0.0127,-0.0169,-0.0198,-0.018,-0.0221,-0.0184,-0.0167,-0.02,-0.0199,-0.0199,-0.0191,-0.0191,-0.0185,-0.0184,-0.0184,0,0.0169,0.0169,0.0142,0.0142,0.0134,0.0095,0.0098,0.0074,0.0032,0.0018,0.0005,-0.0073,-0.0117,-0.0159,-0.0154,-0.0169,-0.0179,-0.019,-0.0193,-0.0194,-0.0195,-0.0187,-0.0188,-0.0181,-0.0181,-0.0182,-0.0182,0,0.0192,0.0192,0.0196,0.0181,0.0169,0.0168,0.0134,0.0121,0.0097,0.0067,0.0031,-0.0025,-0.0072,-0.0087,-0.0121,-0.0149,-0.0147,-0.0177,-0.0212,-0.0189,-0.0181,-0.0184,-0.0176,-0.0177,-0.0178,-0.0179,0,0,0.0227,0.0214,0.0216,0.022,0.0192,0.0189,0.0172,0.0147,0.0148,0.0096,0.0094,0.0013,-0.0014,-0.0048,-0.0089,-0.0128,-0.0132,-0.0153,-0.0157,-0.0145,-0.0171,-0.0162,-0.0163,-0.0161,-0.0162,-0.0163,-0.0147,0,0.0253,0.027,0.0249,0.0264,0.0272,0.0234,0.0229,0.02,0.0177,0.0171,0.0096,0.008,0.0001,-0.0001,-0.0059,-0.01,-0.0141,-0.0131,-0.0196,-0.0197,-0.0194,-0.0168,-0.0194,-0.0183,-0.015,-0.015,-0.015,0,0.0282,0.0292,0.0314,0.0317,0.0317,0.0317,0.0311,0.0305,0.0272,0.0257,0.0207,0.0164,0.0106,0.0046,-0.0058,-0.0043,-0.0113,-0.016,-0.0161,-0.0188,-0.0195,-0.0209,-0.0189,-0.0412,-0.0154,-0.0154,-0.0154,0,0.0331,0.0337,0.036,0.036,0.0354,0.0358,0.0357,0.0333,0.0358,0.0327,0.0362,0.025,0.0254,0.0123,0.0021,-0.0015,-0.0071,-0.013,-0.0196,-0.0193,-0.0249,-0.0251,-0.0461,-0.0228,-0.0228,-0.0228,-0.0228,0,0.037,0.0391,0.0389,0.0405,0.0445,0.0419,0.0466,0.0446,0.0466,0.0537,0.0424,0.0474,0.0271,0.0218,0.0074,-0.0038,-0.0032,-0.019,-0.0199,-0.022,-0.0219,-0.0444,-0.0553,-0.0228,-0.0228,-0.0228,-0.0228,0,0.0423,0.0417,0.0452,0.0461,0.0472,0.0506,0.0561,0.0609,0.0611,0.0712,0.072,0.0662,0.0593,0.0404,0.0235,0.0073,-0.0179,-0.0113,-0.01,-0.011,-0.041,-0.0511,-0.0703,-0.0793,-0.0196,-0.0196,-0.0196,0,0.0452,0.0475,0.0509,0.0551,0.0561,0.0614,0.067,0.0681,0.0763,0.0853,0.0933,0.0884,0.0891,0.0649,0.0333,0.008,-0.0139,-0.0122,-0.0231,-0.0431,-0.0551,-0.063,-0.0698,-0.0256,-0.0257,-0.0257,-0.0257,0,0.052,0.0528,0.0564,0.0654,0.0717,0.0797,0.0888,0.0979,0.1042,0.1139,0.1276,0.1289,0.1042,0.0774,0.0399,0.0186,-0.0288,-0.0136,-0.037,-0.0641,-0.0716,-0.0803,-0.0231,-0.026,-0.026,-0.0259,-0.0259,-0.0259,0.0581,0.0628,0.069,0.0776,0.0859,0.0998,0.1103,0.1229,0.1391,0.1576,0.1551,0.1614,0.1167,0.0644,0.0324,-0.0313,-0.0303,-0.0531,-0.0635,-0.0695,-0.0809,-0.0218,-0.0246,-0.0245,-0.0245,-0.0245,-0.0245,0,0.0673,0.0731,0.0818,0.0936,0.1056,0.1075,0.1269,0.1402,0.1631,0.1771,0.1879,0.1689,0.1145,0.0561,-0.0269,-0.0728,-0.0922,-0.0992,-0.1158,-0.1203,-0.0709,-0.0743,-0.0848,-0.0848,-0.0848,-0.0847,-0.0847,-0.0847,0.0734,0.084,0.0886,0.1098,0.1188,0.1379,0.1505,0.1702,0.1843,0.2034,0.206,0.2036,0.1585,0.0076,-0.0955,-0.1213,-0.1558,-0.1634,-0.1764,-0.1492,-0.1459,-0.1428,-0.1491,-0.175,-0.1751,-0.2237,-0.2242,-0.2246]}],[{"header":{"parameterUnit":"m.s-1","parameterCategory":2,"la1":30.2991,"la2":30.254,"lo1":-89.0895,"lo2":-89.0444,"dy":0.0017,"dx":0.0017,"nx":28,"ny":28,"refTime":"2025-11-05T09:00:00:Z","depth":"2","parameterNumber":2,"parameterNumberName":"U-component_of_CURRENTS"},"data":[0,0,0,0,0,0,0,0,0,0,0,0,0,0,0,0,0,0,0,0,0,0,0,0,0,0,0,0,0,0,0,0,0,0,0,0,0,0,0,0,0,0,0,0,0,0,0,0,0,0,0,0,0,0,0,0,0,0,0.203,0.2031,0,0.2091,0.2091,0.2092,0.2108,0.2108,0.2107,0.2107,0.2158,0.2159,0.2161,0,0,0,0,0,0,0,0,0,0,0,0,0,0.1938,0.1939,0.203,0.2031,0.2032,0.2091,0.2091,0.2092,0.2108,0.2108,0.2107,0.2107,0.2158,0.2159,0.2161,0,0,0,0,0,0,0,0,0,0,0,0,0,0.1984,0.194,0.203,0.2049,0.2052,0.2091,0.2091,0.2092,0.2108,0.2108,0.2107,0.2107,0.2157,0.2159,0.2161,0.2179,0,0,0.2168,0.2169,0,0,0,0,0,0,0,0,0.1981,0.1987,0.2045,0.2048,0.2051,0.2094,0.2078,0.2121,0.2108,0.2084,0.2107,0.2107,0.2138,0.2141,0.215,0.2181,0.2183,0.2168,0.217,0.2171,0.2171,0,0,0,0,0,0,0,0.1978,0.1984,0.2051,0.2046,0.205,0.2058,0.2064,0.2086,0.2109,0.2086,0.2088,0.2099,0.2139,0.2147,0.2151,0.2184,0.2168,0.217,0.2171,0.2172,0.2266,0.2267,0,0,0,0,0,0,0.1976,0.1981,0.205,0.2054,0.2018,0.206,0.2067,0.2078,0.2109,0.2114,0.2099,0.2099,0.2144,0.2148,0.2153,0.2207,0.2171,0.2173,0.2174,0.2264,0.2266,0.2267,0,0,0,0,0,0,0.1973,0.1981,0.2047,0.2021,0.203,0.2062,0.2075,0.2079,0.21,0.2119,0.2124,0.2116,0.2144,0.215,0.2189,0.2207,0.2174,0.2176,0.2263,0.2265,0.2267,0.2294,0,0,0,0,0,0,0.197,0.198,0.1992,0.2021,0.2032,0.2078,0.2075,0.2081,0.2108,0.2109,0.2136,0.2139,0.2144,0.2186,0.2192,0.221,0.2177,0.2262,0.2264,0.2266,0.2292,0.2297,0.2301,0,0,0,0,0,0.1967,0.1984,0.1992,0.2001,0.2046,0.2079,0.2086,0.2105,0.2109,0.2122,0.2145,0.2139,0.2203,0.2189,0.2195,0.2214,0.2261,0.2263,0.2266,0.229,0.2296,0.2301,0,0,0,0,0,0,0.1947,0.1988,0.1998,0.2026,0.2054,0.2083,0.21,0.2114,0.2142,0.2146,0.2159,0.2165,0.2206,0.2209,0.2193,0.2248,0.2229,0.2233,0.2245,0.2251,0.2256,0.226,0.2179,0,0,0,0,0,0.195,0.1973,0.201,0.2032,0.2047,0.2075,0.2093,0.2109,0.2136,0.2149,0.217,0.2193,0.222,0.2235,0.2257,0.229,0.2314,0.2305,0.231,0.2313,0.2322,0.237,0.238,0.2276,0.2276,0.2276,0,0,0.1945,0.1973,0.1985,0.203,0.2051,0.2085,0.2085,0.2117,0.2143,0.215,0.2193,0.2213,0.2234,0.2271,0.2289,0.2276,0.2361,0.2317,0.232,0.2327,0.2374,0.2384,0.2393,0.2277,0.2277,0.2277,0,0,0.1949,0.1976,0.1997,0.2026,0.2068,0.2095,0.2107,0.2146,0.2161,0.2207,0.2217,0.2251,0.2292,0.231,0.2324,0.2369,0.2385,0.2374,0.2399,0.2445,0.2454,0.2462,0.2526,0.2539,0.2373,0.2373,0.2373,0,0.1941,0.1979,0.2007,0.2037,0.2065,0.2102,0.2132,0.2158,0.2206,0.2225,0.2224,0.23,0.2311,0.2361,0.2374,0.2379,0.2415,0.2374,0.2451,0.246,0.2467,0.253,0.2545,0.2374,0.2374,0.2374,0.2374,0,0.1962,0.1996,0.2011,0.2067,0.2099,0.2132,0.2175,0.2209,0.2237,0.2266,0.2321,0.2346,0.2393,0.2397,0.24,0.2461,0.2474,0.2453,0.2436,0.248,0.2543,0.2558,0.2377,0.2376,0.2376,0.2375,0,0,0.1935,0.2011,0.2018,0.2048,0.2118,0.2146,0.2196,0.2253,0.2297,0.2335,0.2391,0.2427,0.2448,0.2465,0.2475,0.2507,0.2593,0.2505,0.2507,0.2567,0.2721,0.2695,0.2708,0.2588,0.259,0.2592,0.275,0,0.1944,0.1999,0.2039,0.21,0.2135,0.2186,0.2239,0.2293,0.2339,0.2405,0.2432,0.2493,0.2472,0.2505,0.2536,0.2585,0.263,0.2553,0.2671,0.2675,0.2645,0.2723,0.2532,0.2653,0.2764,0.2767,0.2769,0,0.1951,0.1994,0.2045,0.213,0.215,0.2197,0.2287,0.2339,0.2429,0.2465,0.2522,0.2557,0.2627,0.2594,0.2705,0.2661,0.2698,0.2724,0.273,0.2705,0.2676,0.2625,0.2676,0.2793,0.2791,0.2789,0.2788,0,0.1919,0.1998,0.204,0.2066,0.2167,0.2202,0.2266,0.2357,0.2411,0.2512,0.2572,0.2645,0.2716,0.2757,0.2818,0.2775,0.2942,0.2885,0.2899,0.2899,0.2758,0.274,0.2963,0.2963,0.2962,0.2962,0.2961,0,0.1914,0.1948,0.2031,0.2056,0.212,0.2198,0.2273,0.2344,0.2459,0.2533,0.2608,0.2686,0.2762,0.2858,0.2874,0.2956,0.2995,0.2933,0.2943,0.2764,0.2746,0.2871,0.2858,0.2968,0.2967,0.2965,0.2964,0,0.1868,0.1922,0.1972,0.2071,0.2103,0.2149,0.2271,0.2329,0.2454,0.2557,0.2599,0.276,0.2886,0.2961,0.3067,0.305,0.3105,0.3118,0.2918,0.2901,0.3017,0.3004,0.315,0.3151,0.3151,0.3152,0.3152,0,0.1849,0.1869,0.1959,0.1986,0.203,0.2107,0.2163,0.23,0.2368,0.2586,0.2638,0.2822,0.2914,0.3093,0.3113,0.3175,0.3174,0.3016,0.2877,0.3044,0.304,0.3026,0.3012,0.2716,0.2712,0.271,0.2708,0,0.1806,0.1835,0.1879,0.1934,0.1985,0.2043,0.2141,0.2195,0.2363,0.247,0.2636,0.2739,0.2941,0.2941,0.305,0.3037,0.2983,0.2963,0.3214,0.2689,0.2644,0.2636,0.2636,0.2683,0.2686,0.2688,0.2689,0.269,0.1765,0.1779,0.1833,0.1881,0.1933,0.198,0.2001,0.2111,0.2216,0.2363,0.2525,0.2625,0.2737,0.2804,0.2766,0.2751,0.2922,0.279,0.2794,0.2802,0.2714,0.2671,0.2702,0.2704,0.2706,0.2708,0.271,0,0.171,0.1741,0.1778,0.1826,0.1842,0.1906,0.1983,0.1989,0.2062,0.2227,0.2344,0.227,0.234,0.2434,0.2395,0.2429,0.2353,0.2323,0.2201,0.2231,0.2257,0.2134,0.1971,0.1968,0.1965,0.1962,0,0,0.1684,0.1694,0.1717,0.1724,0.1758,0.1762,0.1783,0.1806,0.1897,0.1939,0.2,0.2225,0.2383,0.2124,0.2137,0.2043,0.2097,0.1972,0.2582,0.247,0.249,0.2571,0.2424,0,0,0,0,0]},{"header":{"parameterUnit":"m.s-1","parameterCategory":2,"la1":30.2991,"la2":30.254,"lo1":-89.0895,"lo2":-89.0444,"dy":0.0017,"dx":0.0017,"nx":28,"ny":28,"refTime":"2025-11-05T09:00:00:Z","depth":"2","parameterNumber":3,"parameterNumberName":"V-component_of_CURRENTS"},"data":[0,0,0,0,0,0,0,0,0,0,0,0,0,0,0,0,0,0,0,0,0,0,0,0,0,0,0,0,0,0,0,0,0,0,0,0,0,0,0,0,0,0,0,0,0,0,0,0,0,0,0,0,0,0,0,0,0,0,-0.0197,-0.0197,0,-0.0273,-0.0273,-0.0274,-0.0327,-0.0327,-0.0327,-0.0328,-0.0447,-0.045,-0.0452,0,0,0,0,0,0,0,0,0,0,0,0,0,-0.0138,-0.0138,-0.0197,-0.0198,-0.0198,-0.0272,-0.0273,-0.0275,-0.0326,-0.0327,-0.0327,-0.0328,-0.0446,-0.0449,-0.0453,0,0,0,0,0,0,0,0,0,0,0,0,0,-0.0184,-0.0139,-0.0196,-0.0233,-0.0237,-0.0272,-0.0274,-0.0275,-0.0326,-0.0327,-0.0327,-0.0328,-0.0445,-0.0449,-0.0453,-0.0469,0,0,-0.0466,-0.0468,0,0,0,0,0,0,0,0,-0.0181,-0.0186,-0.0227,-0.0231,-0.0235,-0.029,-0.0297,-0.0342,-0.0326,-0.0293,-0.0328,-0.0328,-0.0398,-0.0406,-0.0419,-0.0474,-0.0479,-0.0466,-0.0469,-0.0471,-0.0472,0,0,0,0,0,0,0,-0.0178,-0.0183,-0.0227,-0.0228,-0.0233,-0.026,-0.0267,-0.0305,-0.0342,-0.0296,-0.03,-0.0307,-0.0401,-0.0415,-0.0422,-0.0481,-0.0466,-0.047,-0.0473,-0.0474,-0.056,-0.056,0,0,0,0,0,0,-0.0165,-0.018,-0.0225,-0.0229,-0.0208,-0.026,-0.0268,-0.0272,-0.0341,-0.0352,-0.0307,-0.031,-0.0407,-0.0417,-0.0427,-0.0445,-0.0471,-0.0475,-0.0477,-0.056,-0.056,-0.056,0,0,0,0,0,0,-0.0163,-0.0168,-0.0222,-0.0206,-0.0215,-0.026,-0.0265,-0.0274,-0.0289,-0.0349,-0.0361,-0.0313,-0.0408,-0.0421,-0.0456,-0.045,-0.0477,-0.0481,-0.0561,-0.056,-0.056,-0.0485,0,0,0,0,0,0,-0.0161,-0.0167,-0.0165,-0.0205,-0.0215,-0.0235,-0.0265,-0.0275,-0.0292,-0.0297,-0.0359,-0.037,-0.0409,-0.0449,-0.046,-0.0457,-0.0484,-0.0561,-0.056,-0.056,-0.0488,-0.0482,-0.0477,0,0,0,0,0,-0.0159,-0.0151,-0.0165,-0.017,-0.0212,-0.0235,-0.0242,-0.0277,-0.0292,-0.0294,-0.0335,-0.0368,-0.0454,-0.0453,-0.0466,-0.0463,-0.0561,-0.056,-0.056,-0.049,-0.0483,-0.0477,0,0,0,0,0,0,-0.0123,-0.0157,-0.0173,-0.0175,-0.0201,-0.0244,-0.0248,-0.0272,-0.0305,-0.0309,-0.0366,-0.038,-0.0409,-0.0446,-0.0443,-0.0486,-0.0513,-0.0515,-0.0455,-0.0449,-0.0444,-0.0429,-0.0488,0,0,0,0,0,-0.0113,-0.0117,-0.0154,-0.0155,-0.0165,-0.0205,-0.0219,-0.0242,-0.0277,-0.0292,-0.0333,-0.0378,-0.0416,-0.0439,-0.0478,-0.0502,-0.0532,-0.0509,-0.0503,-0.0499,-0.0495,-0.0534,-0.0531,-0.0557,-0.0557,-0.0557,0,0,-0.01,-0.0118,-0.0121,-0.0148,-0.017,-0.0177,-0.0215,-0.0229,-0.0235,-0.03,-0.0318,-0.0361,-0.0418,-0.0444,-0.046,-0.0474,-0.0504,-0.0498,-0.0493,-0.0492,-0.0533,-0.053,-0.0528,-0.0557,-0.0557,-0.0557,0,0,-0.007,-0.0089,-0.0082,-0.0099,-0.0127,-0.0152,-0.0153,-0.0192,-0.0209,-0.0234,-0.028,-0.0316,-0.0374,-0.0411,-0.0438,-0.0428,-0.0473,-0.0441,-0.0404,-0.0442,-0.044,-0.0438,-0.0457,-0.0458,-0.044,-0.0439,-0.0439,0,-0.0051,-0.005,-0.0083,-0.008,-0.0087,-0.0136,-0.0128,-0.0153,-0.0198,-0.0208,-0.023,-0.0309,-0.0358,-0.0391,-0.0389,-0.0415,-0.0439,-0.0422,-0.0434,-0.0433,-0.0433,-0.0453,-0.0455,-0.0436,-0.0436,-0.0437,-0.0437,0,-0.002,-0.0018,-0.0013,-0.0027,-0.0038,-0.0039,-0.0076,-0.0088,-0.0117,-0.0146,-0.0181,-0.0245,-0.0292,-0.0314,-0.0352,-0.0374,-0.039,-0.042,-0.0446,-0.0426,-0.0448,-0.0452,-0.043,-0.0432,-0.0433,-0.0434,0,0,0.0021,0.0011,0.0013,0.002,-0.0008,-0.0012,-0.0019,-0.004,-0.0037,-0.0092,-0.0094,-0.017,-0.0205,-0.0239,-0.0291,-0.0328,-0.0347,-0.0369,-0.0373,-0.038,-0.0415,-0.0437,-0.0443,-0.0379,-0.038,-0.038,-0.0425,0,0.0056,0.008,0.0061,0.0083,0.0094,0.0056,0.0056,0.0031,0.0004,-0.0011,-0.0083,-0.011,-0.0177,-0.0194,-0.0242,-0.0319,-0.0355,-0.0331,-0.0441,-0.0444,-0.046,-0.0448,-0.0415,-0.0454,-0.0429,-0.043,-0.043,0,0.009,0.0104,0.0135,0.0145,0.0146,0.0149,0.0148,0.0144,0.0106,0.0086,0.0041,-0.0015,-0.0078,-0.0134,-0.0257,-0.0238,-0.0319,-0.0382,-0.0386,-0.0436,-0.0473,-0.0475,-0.0462,-0.0437,-0.0436,-0.0436,-0.0435,0,0.0138,0.0156,0.0185,0.0187,0.0187,0.0197,0.0196,0.0174,0.0191,0.0151,0.0164,0.0063,0.0037,-0.0088,-0.0225,-0.0241,-0.0353,-0.0393,-0.0487,-0.0489,-0.0499,-0.0501,-0.0478,-0.0478,-0.0478,-0.0478,-0.0478,0,0.0181,0.0206,0.0211,0.0228,0.0271,0.0251,0.0292,0.0278,0.0281,0.0317,0.0222,0.0234,0.0048,-0.004,-0.0188,-0.0339,-0.0327,-0.0476,-0.0505,-0.0471,-0.047,-0.049,-0.0491,-0.048,-0.0479,-0.0479,-0.0479,0,0.0225,0.0227,0.0266,0.0282,0.0295,0.0326,0.0369,0.0403,0.0395,0.0446,0.0442,0.0369,0.0251,0.0064,-0.0127,-0.0269,-0.0429,-0.0488,-0.0426,-0.0448,-0.0549,-0.0545,-0.0598,-0.06,-0.0601,-0.0601,-0.0602,0,0.0249,0.0273,0.0313,0.0349,0.036,0.0407,0.0447,0.0456,0.051,0.0537,0.0577,0.0485,0.0431,0.0146,-0.0127,-0.0385,-0.042,-0.052,-0.0559,-0.054,-0.0563,-0.0558,-0.0553,-0.0534,-0.0535,-0.0535,-0.0535,0,0.0298,0.0308,0.0342,0.0417,0.0468,0.0534,0.06,0.0662,0.069,0.073,0.0775,0.0732,0.0472,0.0214,-0.0141,-0.0316,-0.0484,-0.0531,-0.0525,-0.0512,-0.0485,-0.0505,-0.0502,-0.0535,-0.0535,-0.0535,-0.0535,-0.0535,0.0333,0.0368,0.0416,0.0488,0.056,0.066,0.0725,0.0807,0.0895,0.0971,0.0924,0.0886,0.0585,0.0143,-0.0167,-0.0483,-0.049,-0.0597,-0.0595,-0.0593,-0.058,-0.0557,-0.0617,-0.0618,-0.0618,-0.0618,-0.0618,0,0.0375,0.0418,0.0488,0.0578,0.0667,0.07,0.0828,0.0897,0.1012,0.1083,0.1102,0.0849,0.0552,0.0226,-0.025,-0.0554,-0.0569,-0.0629,-0.0584,-0.0582,-0.058,-0.0566,-0.06,-0.0601,-0.0601,-0.0602,0,0,0.0399,0.0467,0.0503,0.0649,0.0727,0.0858,0.0936,0.1038,0.1121,0.1185,0.1184,0.1101,0.0687,0.0356,-0.0059,-0.0323,-0.0376,-0.037,-0.0356,-0.0253,-0.0247,-0.0539,-0.0511,0,0,0,0,0]}],[{"header":{"parameterUnit":"m.s-1","parameterCategory":2,"la1":30.2991,"la2":30.254,"lo1":-89.0895,"lo2":-89.0444,"dy":0.0017,"dx":0.0017,"nx":28,"ny":28,"refTime":"2025-11-05T09:00:00:Z","depth":"4","parameterNumber":2,"parameterNumberName":"U-component_of_CURRENTS"},"data":[0,0,0,0,0,0,0,0,0,0,0,0,0,0,0,0,0,0,0,0,0,0,0,0,0,0,0,0,0,0,0,0,0,0,0,0,0,0,0,0,0,0,0,0,0,0,0,0,0,0,0,0,0,0,0,0,0,0,0.1188,0.1188,0,0.1243,0.1243,0.1244,0.1296,0.1297,0.1298,0.1299,0.1374,0.1376,0.1377,0,0,0,0,0,0,0,0,0,0,0,0,0,0.1096,0.1097,0.1188,0.1188,0.1189,0.1243,0.1243,0.1244,0.1296,0.1297,0.1298,0.13,0.1374,0.1375,0.1377,0,0,0,0,0,0,0,0,0,0,0,0,0,0.1139,0.1098,0.1187,0.1224,0.1228,0.1243,0.1243,0.1244,0.1296,0.1297,0.1299,0.13,0.1374,0.1375,0.1377,0.136,0,0,0.1382,0.1383,0,0,0,0,0,0,0,0,0.1137,0.1142,0.1218,0.1222,0.1226,0.1267,0.1239,0.1285,0.1296,0.1267,0.1299,0.1301,0.1341,0.1346,0.1349,0.1363,0.1367,0.1382,0.1383,0.1384,0.1385,0,0,0,0,0,0,0,0.1134,0.114,0.1207,0.1219,0.1224,0.1228,0.1235,0.1248,0.1294,0.127,0.1274,0.1285,0.1343,0.1347,0.1351,0.1368,0.1382,0.1384,0.1385,0.1386,0.1466,0.1468,0,0,0,0,0,0,0.1133,0.1137,0.1205,0.1209,0.1187,0.1228,0.1237,0.125,0.1293,0.1302,0.1283,0.1287,0.1343,0.1349,0.1354,0.1433,0.1384,0.1386,0.1387,0.1465,0.1467,0.1468,0,0,0,0,0,0,0.1131,0.1139,0.1203,0.1176,0.1185,0.1229,0.1243,0.125,0.1286,0.1304,0.1313,0.1315,0.1344,0.1351,0.1396,0.1433,0.1387,0.1388,0.1464,0.1466,0.1467,0.1529,0,0,0,0,0,0,0.1128,0.1137,0.1156,0.1176,0.1187,0.1233,0.1242,0.1251,0.1289,0.1295,0.1333,0.134,0.1346,0.1394,0.1398,0.1434,0.1389,0.1463,0.1465,0.1467,0.1526,0.1533,0.1539,0,0,0,0,0,0.1125,0.1145,0.1157,0.1166,0.1208,0.1234,0.124,0.1273,0.129,0.1309,0.1339,0.1341,0.141,0.1396,0.1401,0.1438,0.1462,0.1464,0.1467,0.1523,0.1531,0.1539,0,0,0,0,0,0,0.1119,0.1152,0.1166,0.1197,0.1224,0.1245,0.1271,0.1287,0.1324,0.1339,0.1354,0.1363,0.1414,0.1414,0.1398,0.1466,0.1436,0.144,0.1477,0.1485,0.1492,0.149,0.1391,0,0,0,0,0,0.1124,0.1149,0.1177,0.1205,0.1221,0.1249,0.1268,0.1289,0.1319,0.1338,0.1366,0.1394,0.1421,0.1445,0.1462,0.15,0.1508,0.1526,0.1533,0.1538,0.1539,0.1586,0.1597,0.1476,0.1476,0.1476,0,0,0.1127,0.1153,0.1166,0.1206,0.1231,0.1256,0.1265,0.1304,0.1332,0.1339,0.1397,0.1418,0.1434,0.148,0.1503,0.1491,0.158,0.1542,0.1546,0.1544,0.159,0.1602,0.1612,0.1478,0.1478,0.1477,0,0,0.114,0.1174,0.1194,0.1221,0.1265,0.1281,0.1298,0.1336,0.1366,0.1413,0.1428,0.1472,0.1512,0.1535,0.1548,0.1598,0.1609,0.161,0.165,0.1696,0.1707,0.1716,0.1753,0.1765,0.1619,0.1619,0.1619,0,0.1145,0.1178,0.1205,0.1233,0.1262,0.1295,0.1323,0.1353,0.1403,0.1433,0.1443,0.152,0.1536,0.1591,0.1613,0.1615,0.1641,0.1621,0.1706,0.1715,0.1724,0.1759,0.1771,0.1622,0.1622,0.1621,0.1621,0,0.1164,0.1201,0.1221,0.1267,0.1296,0.1332,0.1371,0.1413,0.1454,0.1484,0.1558,0.1585,0.1635,0.1648,0.1649,0.172,0.1721,0.1706,0.1688,0.174,0.1773,0.1785,0.1627,0.1626,0.1625,0.1624,0,0,0.1146,0.1218,0.1228,0.1259,0.1322,0.1346,0.1402,0.1458,0.1511,0.1562,0.163,0.1677,0.1707,0.1723,0.1739,0.1778,0.1863,0.1777,0.1777,0.1816,0.1973,0.1871,0.1874,0.1875,0.1878,0.1879,0.1977,0,0.1157,0.1209,0.1247,0.1304,0.1333,0.1389,0.1439,0.1496,0.1558,0.1633,0.1676,0.1747,0.1732,0.1779,0.1814,0.1856,0.1896,0.1838,0.1914,0.1916,0.1821,0.1885,0.1886,0.1985,0.1988,0.199,0.1991,0,0.1158,0.1197,0.125,0.1329,0.135,0.1395,0.1491,0.1542,0.1642,0.1696,0.1771,0.1817,0.1895,0.1871,0.1966,0.1938,0.1961,0.1979,0.1983,0.1871,0.1835,0.1919,0.2013,0.2011,0.201,0.2008,0.2007,0,0.112,0.1199,0.1245,0.1272,0.1363,0.1411,0.1468,0.1566,0.1628,0.1753,0.1823,0.1906,0.1975,0.2017,0.2062,0.2035,0.2156,0.2119,0.2043,0.2037,0.2072,0.206,0.2178,0.2178,0.2178,0.2177,0.2177,0,0.1107,0.1147,0.1238,0.1265,0.1332,0.1403,0.1493,0.1566,0.1684,0.1764,0.1861,0.1937,0.202,0.2096,0.2107,0.2119,0.2198,0.2061,0.2059,0.2096,0.2086,0.2081,0.2068,0.2181,0.218,0.2179,0.2179,0,0.1055,0.1117,0.1173,0.1277,0.1316,0.1365,0.1499,0.1562,0.1688,0.1802,0.1853,0.1995,0.2094,0.2158,0.224,0.2177,0.2198,0.2178,0.2232,0.223,0.2035,0.2025,0.21,0.2097,0.2095,0.2093,0.2091,0,0.1033,0.1057,0.1167,0.1207,0.1264,0.1351,0.1413,0.1547,0.1619,0.1819,0.1865,0.2021,0.2097,0.2134,0.2198,0.2226,0.2192,0.2185,0.208,0.2039,0.203,0.2023,0.2016,0.2087,0.2087,0.2086,0.2086,0,0.0988,0.1036,0.1081,0.116,0.1233,0.1303,0.1408,0.145,0.1608,0.174,0.1846,0.1913,0.2021,0.2073,0.2119,0.2124,0.2178,0.216,0.2163,0.2065,0.2025,0.2016,0.2012,0.2078,0.2079,0.208,0.208,0,0.0956,0.0972,0.1039,0.1102,0.1185,0.1237,0.1297,0.1391,0.1476,0.169,0.172,0.1879,0.2005,0.2023,0.2064,0.207,0.2025,0.194,0.1953,0.1963,0.1871,0.1797,0.179,0,0,0,0,0,0.0918,0.0931,0.098,0.1043,0.1121,0.1172,0.1289,0.1354,0.1505,0.1542,0.1628,0.1722,0.1803,0.1882,0.186,0.1995,0.2024,0.196,0.1931,0.2033,0.2043,0.1945,0,0,0,0,0,0,0.0892,0.0931,0.0949,0.0983,0.1017,0.1094,0.1161,0.1262,0.129,0.1448,0.1501,0.1623,0.1723,0.1802,0.183,0.1852,0.1799,0.2056,0.2052,0.2028,0.2037,0.2044,0.1947,0,0,0,0,0]},{"header":{"parameterUnit":"m.s-1","parameterCategory":2,"la1":30.2991,"la2":30.254,"lo1":-89.0895,"lo2":-89.0444,"dy":0.0017,"dx":0.0017,"nx":28,"ny":28,"refTime":"2025-11-05T09:00:00:Z","depth":"4","parameterNumber":3,"parameterNumberName":"V-component_of_CURRENTS"},"data":[0,0,0,0,0,0,0,0,0,0,0,0,0,0,0,0,0,0,0,0,0,0,0,0,0,0,0,0,0,0,0,0,0,0,0,0,0,0,0,0,0,0,0,0,0,0,0,0,0,0,0,0,0,0,0,0,0,0,-0.0074,-0.0075,0,-0.0125,-0.0125,-0.0126,-0.0165,-0.0165,-0.0166,-0.0166,-0.0252,-0.0254,-0.0255,0,0,0,0,0,0,0,0,0,0,0,0,0,-0.0033,-0.0033,-0.0074,-0.0075,-0.0076,-0.0125,-0.0125,-0.0126,-0.0165,-0.0165,-0.0166,-0.0166,-0.0251,-0.0253,-0.0256,0,0,0,0,0,0,0,0,0,0,0,0,0,-0.0064,-0.0033,-0.0074,-0.0101,-0.0104,-0.0124,-0.0125,-0.0126,-0.0165,-0.0165,-0.0166,-0.0167,-0.025,-0.0253,-0.0256,-0.0262,0,0,-0.0265,-0.0266,0,0,0,0,0,0,0,0,-0.0062,-0.0065,-0.0097,-0.0099,-0.0103,-0.0139,-0.0142,-0.0173,-0.0165,-0.0142,-0.0166,-0.0167,-0.0217,-0.0223,-0.023,-0.0266,-0.027,-0.0265,-0.0267,-0.0268,-0.0269,0,0,0,0,0,0,0,-0.0059,-0.0063,-0.0094,-0.0097,-0.0101,-0.0118,-0.0122,-0.0148,-0.0176,-0.0144,-0.0147,-0.0152,-0.0219,-0.0227,-0.0233,-0.0271,-0.0265,-0.0268,-0.0269,-0.027,-0.0345,-0.0345,0,0,0,0,0,0,-0.0052,-0.0061,-0.0093,-0.0096,-0.0083,-0.0118,-0.0123,-0.0127,-0.0175,-0.0183,-0.0152,-0.0154,-0.0222,-0.0229,-0.0236,-0.0256,-0.0268,-0.0271,-0.0272,-0.0345,-0.0345,-0.0345,0,0,0,0,0,0,-0.0051,-0.0054,-0.0091,-0.008,-0.0086,-0.0118,-0.0122,-0.0128,-0.0141,-0.0181,-0.0189,-0.016,-0.0223,-0.0232,-0.0262,-0.026,-0.0272,-0.0275,-0.0344,-0.0345,-0.0345,-0.0291,0,0,0,0,0,0,-0.0049,-0.0053,-0.0053,-0.0079,-0.0086,-0.0101,-0.0121,-0.0128,-0.0143,-0.0147,-0.019,-0.0198,-0.0224,-0.0257,-0.0265,-0.0264,-0.0277,-0.0344,-0.0344,-0.0345,-0.0293,-0.029,-0.0287,0,0,0,0,0,-0.0047,-0.0042,-0.0053,-0.0057,-0.0085,-0.0101,-0.0106,-0.0131,-0.0143,-0.0145,-0.0177,-0.0197,-0.0266,-0.026,-0.0268,-0.0268,-0.0344,-0.0344,-0.0345,-0.0294,-0.029,-0.0287,0,0,0,0,0,0,-0.0024,-0.0047,-0.0058,-0.0061,-0.0079,-0.0107,-0.0111,-0.0129,-0.0155,-0.016,-0.0199,-0.0209,-0.0236,-0.0261,-0.0253,-0.0293,-0.0309,-0.0311,-0.0267,-0.0264,-0.0261,-0.0235,-0.0279,0,0,0,0,0,-0.0018,-0.002,-0.0046,-0.0047,-0.0055,-0.0083,-0.0093,-0.011,-0.0136,-0.0148,-0.0179,-0.0213,-0.0244,-0.026,-0.0291,-0.0309,-0.0336,-0.0317,-0.0314,-0.0311,-0.0297,-0.0336,-0.0335,-0.0347,-0.0347,-0.0347,0,0,-0.0008,-0.0021,-0.0022,-0.0042,-0.0058,-0.0059,-0.009,-0.0102,-0.0103,-0.0153,-0.0166,-0.0205,-0.0248,-0.027,-0.0284,-0.029,-0.0325,-0.0312,-0.0309,-0.0296,-0.0337,-0.0336,-0.0334,-0.0347,-0.0347,-0.0347,0,0,0.0016,-0.0001,0.0006,-0.0006,-0.0027,-0.0043,-0.0045,-0.0074,-0.0088,-0.0108,-0.0145,-0.0179,-0.0224,-0.0251,-0.0271,-0.0271,-0.0311,-0.0289,-0.025,-0.0289,-0.0288,-0.0287,-0.0328,-0.0331,-0.0285,-0.0285,-0.0285,0,0.0029,0.0033,0.0006,0.0011,0.0009,-0.0032,-0.002,-0.004,-0.0075,-0.0082,-0.0106,-0.0172,-0.0211,-0.0234,-0.0237,-0.0263,-0.0294,-0.0256,-0.0283,-0.0283,-0.0283,-0.0325,-0.033,-0.0282,-0.0283,-0.0283,-0.0283,0,0.0057,0.0061,0.0065,0.006,0.0054,0.0055,0.0029,0.0018,-0.0008,-0.0031,-0.0063,-0.0119,-0.0156,-0.018,-0.0209,-0.023,-0.0255,-0.0276,-0.0286,-0.0279,-0.0324,-0.0329,-0.0279,-0.028,-0.028,-0.0281,0,0,0.0086,0.0087,0.0088,0.0099,0.0081,0.0082,0.0081,0.0069,0.0068,0.0023,0.0016,-0.0042,-0.0078,-0.0103,-0.0151,-0.0184,-0.0222,-0.0225,-0.0229,-0.0255,-0.0312,-0.0308,-0.0315,-0.0249,-0.025,-0.025,-0.0345,0,0.0117,0.0143,0.0134,0.0162,0.0173,0.0148,0.0153,0.0136,0.0107,0.0086,0.0028,-0.0003,-0.0048,-0.0073,-0.0111,-0.0199,-0.0233,-0.0194,-0.0324,-0.0327,-0.0316,-0.0319,-0.0251,-0.035,-0.0351,-0.0352,-0.0353,0,0.0145,0.0161,0.0195,0.0216,0.0219,0.0228,0.0229,0.0228,0.019,0.0167,0.0128,0.0073,0.0016,-0.0027,-0.0149,-0.0125,-0.0206,-0.0272,-0.0277,-0.0291,-0.0333,-0.0359,-0.0363,-0.0362,-0.0362,-0.0361,-0.036,0,0.0176,0.0204,0.0235,0.0241,0.0254,0.0267,0.027,0.025,0.0254,0.0212,0.0201,0.0125,0.0076,-0.0023,-0.016,-0.016,-0.03,-0.0321,-0.039,-0.0392,-0.0389,-0.0389,-0.0396,-0.0396,-0.0396,-0.0396,-0.0395,0,0.0206,0.0231,0.0252,0.0268,0.0307,0.0303,0.033,0.0321,0.0308,0.0314,0.0243,0.022,0.0073,-0.0027,-0.0144,-0.0284,-0.0291,-0.0378,-0.0412,-0.0367,-0.0363,-0.0394,-0.0393,-0.0399,-0.0398,-0.0398,-0.0397,0,0.0225,0.0239,0.0277,0.0306,0.032,0.0344,0.0373,0.0388,0.0373,0.0375,0.0365,0.0277,0.0148,-0.0,-0.0179,-0.0264,-0.0398,-0.0446,-0.0387,-0.0418,-0.0469,-0.0464,-0.0526,-0.0527,-0.0527,-0.0528,-0.0528,0,0.0234,0.0256,0.0303,0.0329,0.0343,0.0379,0.0405,0.0415,0.0432,0.041,0.0412,0.03,0.0223,-0.0013,-0.0178,-0.0394,-0.0423,-0.0492,-0.0472,-0.0453,-0.0481,-0.0475,-0.0469,-0.0529,-0.0529,-0.0529,-0.0529,0,0.0249,0.0264,0.0294,0.0348,0.0385,0.0435,0.0472,0.0492,0.0501,0.0493,0.0456,0.0336,0.0189,0.0,-0.0173,-0.0328,-0.0446,-0.0498,-0.0498,-0.048,-0.0457,-0.0483,-0.0476,-0.0531,-0.0531,-0.0531,-0.0531,0,0.0253,0.0273,0.0311,0.0359,0.0414,0.0468,0.0491,0.0515,0.0535,0.052,0.0502,0.0352,0.0262,0.0033,-0.0126,-0.0278,-0.0314,-0.0355,-0.0363,-0.0363,-0.0287,-0.0233,-0.026,0,0,0,0,0,0.025,0.0272,0.0319,0.0373,0.0431,0.0469,0.0526,0.0545,0.0559,0.0548,0.0533,0.0404,0.0177,0.0072,-0.0077,-0.0155,-0.0359,-0.0337,-0.0413,-0.054,-0.0538,-0.0476,0,0,0,0,0,0,0.0245,0.0284,0.0311,0.0377,0.042,0.0489,0.053,0.0546,0.0543,0.0538,0.0422,0.0372,0.0146,0.0265,-0.0078,-0.0127,-0.0195,-0.0444,-0.0447,-0.0542,-0.054,-0.0538,-0.0473,0,0,0,0,0]}]]